Time,TemperatureF,DewpointF,PressureIn,WindDirection,WindDirectionDegrees,WindSpeedMPH,WindSpeedGustMPH,Humidity,HourlyPrecipIn,Conditions,Clouds,dailyrainin,SoftwareType,DateUTC
2013-02-07 00:00:00,41.0,38.3,29.39,NNW,338,0.0,1.8,90,0.00,,,0.00,WUHU216HW,2013-02-07 08:00:00,
2013-02-07 00:06:00,41.0,38.1,29.38,North,0,0.0,0.7,89,0.00,,,0.00,WUHU216HW,2013-02-07 08:06:00,
2013-02-07 00:10:00,41.2,38.5,29.37,North,0,0.4,0.9,90,0.00,,,0.00,WUHU216HW,2013-02-07 08:10:00,
2013-02-07 00:15:00,41.0,38.3,29.37,NNW,338,0.9,1.3,90,0.00,,,0.00,WUHU216HW,2013-02-07 08:15:00,
2013-02-07 00:21:00,41.0,38.3,29.36,NNW,338,0.4,2.2,90,0.00,,,0.00,WUHU216HW,2013-02-07 08:21:00,
2013-02-07 00:25:00,41.0,38.3,29.36,NNW,338,0.0,2.2,90,0.00,,,0.00,WUHU216HW,2013-02-07 08:25:00,
2013-02-07 00:31:00,41.0,38.3,29.36,North,0,0.4,0.7,90,0.00,,,0.00,WUHU216HW,2013-02-07 08:31:00,
2013-02-07 00:35:00,41.0,38.3,29.36,North,0,0.2,1.1,90,0.00,,,0.00,WUHU216HW,2013-02-07 08:35:00,
2013-02-07 00:40:00,41.0,38.3,29.37,North,0,0.7,1.1,90,0.00,,,0.00,WUHU216HW,2013-02-07 08:40:00,
2013-02-07 00:45:00,40.9,38.2,29.37,North,0,0.0,0.7,90,0.00,,,0.00,WUHU216HW,2013-02-07 08:45:00,
2013-02-07 00:50:00,40.9,38.2,29.37,North,0,0.0,0.7,90,0.00,,,0.00,WUHU216HW,2013-02-07 08:50:00,
2013-02-07 00:55:00,40.9,38.2,29.38,North,0,0.0,1.1,90,0.00,,,0.00,WUHU216HW,2013-02-07 08:55:00,
2013-02-07 01:00:00,41.0,38.3,29.39,North,0,0.2,1.1,90,0.01,,,0.01,WUHU216HW,2013-02-07 09:00:00,
2013-02-07 01:05:00,41.0,38.3,29.40,NW,315,2.5,5.4,90,0.01,,,0.01,WUHU216HW,2013-02-07 09:05:00,
2013-02-07 01:10:00,41.0,38.3,29.40,NNW,338,0.9,5.4,90,0.01,,,0.01,WUHU216HW,2013-02-07 09:10:00,
2013-02-07 01:15:00,41.2,38.5,29.41,NNW,338,0.4,2.9,90,0.01,,,0.01,WUHU216HW,2013-02-07 09:15:00,
2013-02-07 01:20:00,41.4,38.7,29.41,NNW,338,0.4,2.9,90,0.01,,,0.01,WUHU216HW,2013-02-07 09:20:00,
2013-02-07 01:25:00,41.4,38.7,29.41,North,0,0.9,1.8,90,0.01,,,0.01,WUHU216HW,2013-02-07 09:25:00,
2013-02-07 01:30:00,41.2,38.5,29.41,NW,315,2.0,2.5,90,0.01,,,0.01,WUHU216HW,2013-02-07 09:30:00,
2013-02-07 01:35:00,41.2,38.5,29.41,South,180,1.3,2.5,90,0.01,,,0.01,WUHU216HW,2013-02-07 09:35:00,
2013-02-07 01:40:00,41.2,38.5,29.41,West,270,0.4,2.0,90,0.01,,,0.01,WUHU216HW,2013-02-07 09:40:00,
2013-02-07 01:45:00,41.0,38.6,29.41,NNW,338,0.0,1.8,91,0.01,,,0.01,WUHU216HW,2013-02-07 09:45:00,
2013-02-07 01:50:00,41.0,38.6,29.41,NW,315,0.0,1.1,91,0.01,,,0.01,WUHU216HW,2013-02-07 09:50:00,
2013-02-07 01:55:00,41.0,38.6,29.41,NW,315,1.1,1.6,91,0.01,,,0.01,WUHU216HW,2013-02-07 09:55:00,
2013-02-07 02:00:00,41.4,38.7,29.41,North,0,0.4,4.0,90,0.00,,,0.01,WUHU216HW,2013-02-07 10:00:00,
2013-02-07 02:05:00,41.4,38.4,29.41,WNW,293,1.1,4.0,89,0.00,,,0.01,WUHU216HW,2013-02-07 10:05:00,
2013-02-07 02:10:00,41.4,37.8,29.41,NNW,338,1.8,6.5,87,0.00,,,0.01,WUHU216HW,2013-02-07 10:10:00,
2013-02-07 02:15:00,41.4,38.1,29.42,NW,315,0.7,6.5,88,0.00,,,0.01,WUHU216HW,2013-02-07 10:15:00,
2013-02-07 02:20:00,41.4,37.8,29.41,NW,315,2.2,5.1,87,0.00,,,0.01,WUHU216HW,2013-02-07 10:20:00,
2013-02-07 02:25:00,41.2,37.6,29.41,WNW,293,2.5,5.8,87,0.00,,,0.01,WUHU216HW,2013-02-07 10:25:00,
2013-02-07 02:30:00,41.2,37.6,29.41,WNW,293,3.6,5.8,87,0.00,,,0.01,WUHU216HW,2013-02-07 10:30:00,
2013-02-07 02:36:00,41.0,37.5,29.41,West,270,2.2,5.4,87,0.00,,,0.01,WUHU216HW,2013-02-07 10:36:00,
2013-02-07 02:41:00,40.9,37.3,29.42,NNW,338,1.1,4.9,87,0.00,,,0.01,WUHU216HW,2013-02-07 10:41:00,
2013-02-07 02:46:00,40.7,37.1,29.42,NNW,338,1.8,4.9,87,0.00,,,0.01,WUHU216HW,2013-02-07 10:46:00,
2013-02-07 02:51:00,40.7,37.1,29.42,WNW,293,0.7,3.4,87,0.00,,,0.01,WUHU216HW,2013-02-07 10:51:00,
2013-02-07 02:56:00,40.7,37.1,29.41,North,0,1.8,3.4,87,0.00,,,0.01,WUHU216HW,2013-02-07 10:56:00,
2013-02-07 03:01:00,40.5,36.9,29.41,NW,315,3.8,4.7,87,0.00,,,0.01,WUHU216HW,2013-02-07 11:01:00,
2013-02-07 03:06:00,40.5,36.9,29.42,NW,315,2.0,4.7,87,0.00,,,0.01,WUHU216HW,2013-02-07 11:06:00,
2013-02-07 03:11:00,40.3,36.7,29.42,West,270,2.2,4.7,87,0.00,,,0.01,WUHU216HW,2013-02-07 11:11:00,
2013-02-07 03:16:00,40.3,36.7,29.42,NNW,338,1.1,3.6,87,0.00,,,0.01,WUHU216HW,2013-02-07 11:16:00,
2013-02-07 03:21:00,40.3,36.7,29.42,NNW,338,2.2,5.1,87,0.01,,,0.02,WUHU216HW,2013-02-07 11:21:00,
2013-02-07 03:26:00,40.3,36.7,29.42,NW,315,3.4,5.1,87,0.01,,,0.02,WUHU216HW,2013-02-07 11:26:00,
2013-02-07 03:31:00,40.1,36.5,29.41,NW,315,0.2,4.7,87,0.01,,,0.02,WUHU216HW,2013-02-07 11:31:00,
2013-02-07 03:36:00,40.0,36.6,29.42,NW,315,0.9,4.0,88,0.01,,,0.02,WUHU216HW,2013-02-07 11:36:00,
2013-02-07 03:41:00,40.0,37.0,29.42,NNW,338,1.3,3.8,89,0.01,,,0.02,WUHU216HW,2013-02-07 11:41:00,
2013-02-07 03:46:00,39.6,36.6,29.41,WNW,293,3.4,3.8,89,0.01,,,0.02,WUHU216HW,2013-02-07 11:46:00,
2013-02-07 03:51:00,39.6,36.6,29.42,NW,315,3.6,4.0,89,0.01,,,0.02,WUHU216HW,2013-02-07 11:51:00,
2013-02-07 03:56:00,39.8,36.8,29.42,NNW,338,3.8,4.3,89,0.01,,,0.02,WUHU216HW,2013-02-07 11:56:00,
2013-02-07 04:01:00,40.0,36.6,29.43,NW,315,3.4,5.6,88,0.01,,,0.02,WUHU216HW,2013-02-07 12:01:00,
2013-02-07 04:06:00,40.0,36.6,29.43,NW,315,2.9,5.6,88,0.01,,,0.02,WUHU216HW,2013-02-07 12:06:00,
2013-02-07 04:11:00,40.0,36.6,29.44,NW,315,3.1,5.4,88,0.01,,,0.02,WUHU216HW,2013-02-07 12:11:00,
2013-02-07 04:16:00,40.0,36.6,29.43,NNW,338,4.0,4.0,88,0.01,,,0.02,WUHU216HW,2013-02-07 12:16:00,
2013-02-07 04:21:00,40.0,36.4,29.43,NNW,338,2.5,4.0,87,0.00,,,0.02,WUHU216HW,2013-02-07 12:21:00,
2013-02-07 04:26:00,40.0,36.4,29.44,NW,315,2.0,4.0,87,0.00,,,0.02,WUHU216HW,2013-02-07 12:26:00,
2013-02-07 04:31:00,40.0,36.4,29.43,NNW,338,1.1,4.0,87,0.00,,,0.02,WUHU216HW,2013-02-07 12:31:00,
2013-02-07 04:36:00,39.6,36.0,29.43,North,0,1.8,4.0,87,0.00,,,0.02,WUHU216HW,2013-02-07 12:36:00,
2013-02-07 04:41:00,39.4,36.2,29.43,NNW,338,1.8,3.4,88,0.00,,,0.02,WUHU216HW,2013-02-07 12:41:00,
2013-02-07 04:46:00,39.2,36.0,29.43,NNE,23,1.1,4.7,88,0.00,,,0.02,WUHU216HW,2013-02-07 12:46:00,
2013-02-07 04:51:00,39.1,35.8,29.44,NNW,338,0.9,4.7,88,0.00,,,0.02,WUHU216HW,2013-02-07 12:51:00,
2013-02-07 04:56:00,38.5,35.3,29.44,NW,315,1.1,2.5,88,0.00,,,0.02,WUHU216HW,2013-02-07 12:56:00,
2013-02-07 05:01:00,38.2,35.2,29.44,NW,315,3.6,3.6,89,0.00,,,0.02,WUHU216HW,2013-02-07 13:01:00,
2013-02-07 05:06:00,38.3,35.4,29.44,NNW,338,1.8,3.6,89,0.00,,,0.02,WUHU216HW,2013-02-07 13:06:00,
2013-02-07 05:11:00,38.7,35.7,29.44,NNW,338,1.6,3.6,89,0.00,,,0.02,WUHU216HW,2013-02-07 13:11:00,
2013-02-07 05:16:00,38.9,35.7,29.44,NW,315,1.8,3.4,88,0.00,,,0.02,WUHU216HW,2013-02-07 13:16:00,
2013-02-07 05:21:00,39.2,36.0,29.44,NNW,338,0.7,3.4,88,0.00,,,0.02,WUHU216HW,2013-02-07 13:21:00,
2013-02-07 05:26:00,38.9,35.3,29.44,NNE,23,1.3,3.6,87,0.00,,,0.02,WUHU216HW,2013-02-07 13:26:00,
2013-02-07 05:31:00,38.3,35.1,29.44,NNW,338,2.0,3.6,88,0.00,,,0.02,WUHU216HW,2013-02-07 13:31:00,
2013-02-07 05:36:00,38.0,35.0,29.44,NNW,338,2.2,3.1,89,0.00,,,0.02,WUHU216HW,2013-02-07 13:36:00,
2013-02-07 05:41:00,37.8,34.8,29.45,NNW,338,1.1,3.4,89,0.00,,,0.02,WUHU216HW,2013-02-07 13:41:00,
2013-02-07 05:46:00,37.8,35.1,29.45,NNW,338,1.1,3.4,90,0.00,,,0.02,WUHU216HW,2013-02-07 13:46:00,
2013-02-07 05:51:00,37.8,35.1,29.45,NNW,338,1.1,2.5,90,0.00,,,0.02,WUHU216HW,2013-02-07 13:51:00,
2013-02-07 05:56:00,37.6,34.9,29.45,North,0,0.4,2.5,90,0.00,,,0.02,WUHU216HW,2013-02-07 13:56:00,
2013-02-07 06:01:00,37.8,35.1,29.44,NNW,338,1.1,2.2,90,0.00,,,0.02,WUHU216HW,2013-02-07 14:01:00,
2013-02-07 06:06:00,37.8,35.1,29.44,NNW,338,2.2,2.5,90,0.00,,,0.02,WUHU216HW,2013-02-07 14:06:00,
2013-02-07 06:11:00,37.8,35.1,29.44,NNW,338,1.8,4.0,90,0.00,,,0.02,WUHU216HW,2013-02-07 14:11:00,
2013-02-07 06:16:00,37.8,35.1,29.44,NW,315,2.2,4.0,90,0.00,,,0.02,WUHU216HW,2013-02-07 14:16:00,
2013-02-07 06:21:00,37.8,35.1,29.44,North,0,2.5,3.4,90,0.00,,,0.02,WUHU216HW,2013-02-07 14:21:00,
2013-02-07 06:26:00,38.0,35.3,29.45,NW,315,1.1,2.7,90,0.00,,,0.02,WUHU216HW,2013-02-07 14:26:00,
2013-02-07 06:31:00,38.2,35.5,29.45,NNW,338,0.4,2.7,90,0.00,,,0.02,WUHU216HW,2013-02-07 14:31:00,
2013-02-07 06:36:00,38.0,35.0,29.45,NNW,338,0.7,2.5,89,0.00,,,0.02,WUHU216HW,2013-02-07 14:36:00,
2013-02-07 06:41:00,37.8,35.1,29.45,North,0,0.4,1.8,90,0.01,,,0.03,WUHU216HW,2013-02-07 14:41:00,
2013-02-07 06:46:00,37.8,35.1,29.44,North,0,0.4,1.8,90,0.01,,,0.03,WUHU216HW,2013-02-07 14:46:00,
2013-02-07 06:51:00,37.6,34.9,29.45,NNW,338,1.1,1.3,90,0.01,,,0.03,WUHU216HW,2013-02-07 14:51:00,
2013-02-07 06:56:00,37.4,34.7,29.45,NW,315,2.5,2.5,90,0.01,,,0.03,WUHU216HW,2013-02-07 14:56:00,
2013-02-07 07:01:00,37.1,34.1,29.44,NNW,338,1.6,2.5,89,0.01,,,0.03,WUHU216HW,2013-02-07 15:01:00,
2013-02-07 07:06:00,37.1,34.4,29.44,NNW,338,1.8,2.5,90,0.01,,,0.03,WUHU216HW,2013-02-07 15:06:00,
2013-02-07 07:11:00,37.3,34.6,29.45,NW,315,1.8,2.5,90,0.01,,,0.03,WUHU216HW,2013-02-07 15:11:00,
2013-02-07 07:16:00,37.4,34.7,29.45,NNW,338,0.4,2.5,90,0.01,,,0.03,WUHU216HW,2013-02-07 15:16:00,
2013-02-07 07:21:00,37.8,35.1,29.45,NNW,338,0.0,2.0,90,0.01,,,0.03,WUHU216HW,2013-02-07 15:21:00,
2013-02-07 07:26:00,37.8,35.1,29.45,NNW,338,0.0,1.8,90,0.01,,,0.03,WUHU216HW,2013-02-07 15:26:00,
2013-02-07 07:31:00,37.8,35.1,29.46,NW,315,0.4,2.0,90,0.01,,,0.03,WUHU216HW,2013-02-07 15:31:00,
2013-02-07 07:36:00,38.0,35.3,29.46,NW,315,0.0,2.0,90,0.00,,,0.03,WUHU216HW,2013-02-07 15:36:00,
2013-02-07 07:41:00,38.2,35.5,29.46,NW,315,0.4,0.9,90,0.00,,,0.03,WUHU216HW,2013-02-07 15:41:00,
2013-02-07 07:46:00,38.2,35.5,29.47,NW,315,0.0,0.9,90,0.00,,,0.03,WUHU216HW,2013-02-07 15:46:00,
2013-02-07 07:51:00,38.3,35.6,29.47,NW,315,0.0,0.7,90,0.00,,,0.03,WUHU216HW,2013-02-07 15:51:00,
2013-02-07 07:56:00,38.5,36.1,29.47,NNW,338,0.7,1.3,91,0.00,,,0.03,WUHU216HW,2013-02-07 15:56:00,
2013-02-07 08:01:00,38.7,36.0,29.47,NW,315,0.7,1.3,90,0.00,,,0.03,WUHU216HW,2013-02-07 16:01:00,
2013-02-07 08:06:00,38.9,36.5,29.47,NW,315,1.3,1.8,91,0.00,,,0.03,WUHU216HW,2013-02-07 16:06:00,
2013-02-07 08:11:00,38.9,36.2,29.47,NNW,338,0.9,1.8,90,0.00,,,0.03,WUHU216HW,2013-02-07 16:11:00,
2013-02-07 08:16:00,38.9,35.9,29.47,NNW,338,1.6,1.8,89,0.00,,,0.03,WUHU216HW,2013-02-07 16:16:00,
2013-02-07 08:21:00,38.7,35.7,29.48,NNW,338,0.9,1.8,89,0.00,,,0.03,WUHU216HW,2013-02-07 16:21:00,
2013-02-07 08:26:00,38.7,35.7,29.48,NNW,338,0.7,1.8,89,0.00,,,0.03,WUHU216HW,2013-02-07 16:26:00,
2013-02-07 08:31:00,38.9,36.2,29.48,NNW,338,0.7,1.6,90,0.00,,,0.03,WUHU216HW,2013-02-07 16:31:00,
2013-02-07 08:36:00,39.2,36.5,29.48,NNW,338,1.1,1.8,90,0.00,,,0.03,WUHU216HW,2013-02-07 16:36:00,
2013-02-07 08:41:00,39.8,36.8,29.48,NW,315,1.3,1.8,89,0.00,,,0.03,WUHU216HW,2013-02-07 16:41:00,
2013-02-07 08:46:00,40.1,37.2,29.48,NNE,23,1.3,1.8,89,0.00,,,0.03,WUHU216HW,2013-02-07 16:46:00,
2013-02-07 08:51:00,40.7,37.4,29.49,West,270,1.1,1.8,88,0.00,,,0.03,WUHU216HW,2013-02-07 16:51:00,
2013-02-07 08:56:00,41.0,37.5,29.49,NNW,338,0.7,1.3,87,0.00,,,0.03,WUHU216HW,2013-02-07 16:56:00,
2013-02-07 09:01:00,41.6,37.1,29.49,SSE,158,0.9,1.6,84,0.00,,,0.03,WUHU216HW,2013-02-07 17:01:00,
2013-02-07 09:06:00,42.1,37.9,29.49,SSW,203,0.0,1.8,85,0.00,,,0.03,WUHU216HW,2013-02-07 17:06:00,
2013-02-07 09:11:00,42.1,37.9,29.49,West,270,2.7,2.7,85,0.00,,,0.03,WUHU216HW,2013-02-07 17:11:00,
2013-02-07 09:16:00,42.1,37.6,29.49,NNW,338,0.9,2.7,84,0.00,,,0.03,WUHU216HW,2013-02-07 17:16:00,
2013-02-07 09:21:00,42.1,37.0,29.49,NNW,338,0.9,2.7,82,0.00,,,0.03,WUHU216HW,2013-02-07 17:21:00,
2013-02-07 09:26:00,42.3,37.4,29.49,NNW,338,0.4,2.7,83,0.00,,,0.03,WUHU216HW,2013-02-07 17:26:00,
2013-02-07 09:31:00,42.7,37.5,29.49,North,0,1.1,1.8,82,0.00,,,0.03,WUHU216HW,2013-02-07 17:31:00,
2013-02-07 09:36:00,43.0,38.2,29.49,SE,135,1.1,2.7,83,0.00,,,0.03,WUHU216HW,2013-02-07 17:36:00,
2013-02-07 09:41:00,43.7,38.9,29.49,West,270,2.2,2.7,83,0.00,,,0.03,WUHU216HW,2013-02-07 17:41:00,
2013-02-07 09:46:00,44.1,38.0,29.49,SW,225,0.7,2.9,79,0.00,,,0.03,WUHU216HW,2013-02-07 17:46:00,
2013-02-07 09:51:00,44.3,37.5,29.49,NNW,338,0.7,2.9,77,0.00,,,0.03,WUHU216HW,2013-02-07 17:51:00,
2013-02-07 09:56:00,44.6,38.9,29.49,SSW,203,1.6,2.0,80,0.00,,,0.03,WUHU216HW,2013-02-07 17:56:00,
2013-02-07 10:01:00,45.0,37.5,29.49,WNW,293,5.8,5.8,75,0.00,,,0.03,WUHU216HW,2013-02-07 18:01:00,
2013-02-07 10:06:00,45.2,38.1,29.49,NNW,338,5.4,5.8,76,0.00,,,0.03,WUHU216HW,2013-02-07 18:06:00,
2013-02-07 10:11:00,45.2,38.1,29.48,NW,315,3.4,5.8,76,0.00,,,0.03,WUHU216HW,2013-02-07 18:11:00,
2013-02-07 10:16:00,45.4,37.2,29.48,WNW,293,1.8,6.3,73,0.00,,,0.03,WUHU216HW,2013-02-07 18:16:00,
2013-02-07 10:21:00,46.1,39.0,29.48,SSW,203,1.3,6.3,76,0.00,,,0.03,WUHU216HW,2013-02-07 18:21:00,
2013-02-07 10:26:00,46.4,38.0,29.48,NNW,338,1.6,5.6,72,0.00,,,0.03,WUHU216HW,2013-02-07 18:26:00,
2013-02-07 10:31:00,46.3,38.4,29.48,SSW,203,0.7,4.5,74,0.00,,,0.03,WUHU216HW,2013-02-07 18:31:00,
2013-02-07 10:36:00,46.1,38.6,29.49,SW,225,2.5,4.5,75,0.00,,,0.03,WUHU216HW,2013-02-07 18:36:00,
2013-02-07 10:41:00,46.3,39.2,29.49,WNW,293,0.4,3.8,76,0.00,,,0.03,WUHU216HW,2013-02-07 18:41:00,
2013-02-07 10:46:00,46.1,38.6,29.49,SSW,203,1.1,3.8,75,0.00,,,0.03,WUHU216HW,2013-02-07 18:46:00,
2013-02-07 10:51:00,45.7,38.6,29.49,SSW,203,0.4,3.4,76,0.00,,,0.03,WUHU216HW,2013-02-07 18:51:00,
2013-02-07 10:56:00,45.7,38.3,29.49,WNW,293,4.3,5.4,75,0.00,,,0.03,WUHU216HW,2013-02-07 18:56:00,
2013-02-07 11:02:00,45.7,38.6,29.49,WNW,293,2.2,5.4,76,0.00,,,0.03,WUHU216HW,2013-02-07 19:02:00,
2013-02-07 11:07:00,46.1,38.6,29.49,WSW,248,2.2,4.7,75,0.00,,,0.03,WUHU216HW,2013-02-07 19:07:00,
2013-02-07 11:12:00,46.4,38.6,29.49,NW,315,5.6,7.6,74,0.00,,,0.03,WUHU216HW,2013-02-07 19:12:00,
2013-02-07 11:17:00,46.6,38.4,29.49,SW,225,1.8,7.6,73,0.00,,,0.03,WUHU216HW,2013-02-07 19:17:00,
2013-02-07 11:22:00,47.2,39.0,29.49,SSW,203,2.2,6.3,73,0.00,,,0.03,WUHU216HW,2013-02-07 19:22:00,
2013-02-07 11:27:00,47.3,38.8,29.49,NW,315,2.5,3.8,72,0.00,,,0.03,WUHU216HW,2013-02-07 19:27:00,
2013-02-07 11:32:00,47.2,39.2,29.49,NW,315,3.4,5.4,74,0.00,,,0.03,WUHU216HW,2013-02-07 19:32:00,
2013-02-07 11:37:00,47.5,38.9,29.48,WNW,293,5.6,5.6,72,0.00,,,0.03,WUHU216HW,2013-02-07 19:37:00,
2013-02-07 11:42:00,47.5,38.3,29.48,NW,315,5.4,5.8,70,0.00,,,0.03,WUHU216HW,2013-02-07 19:42:00,
2013-02-07 11:47:00,47.7,38.7,29.48,WSW,248,0.9,5.8,71,0.00,,,0.03,WUHU216HW,2013-02-07 19:47:00,
2013-02-07 11:52:00,48.2,38.9,29.48,SW,225,1.8,5.6,70,0.00,,,0.03,WUHU216HW,2013-02-07 19:52:00,
2013-02-07 11:57:00,47.9,38.2,29.47,NNW,338,3.8,7.2,69,0.00,,,0.03,WUHU216HW,2013-02-07 19:57:00,
2013-02-07 12:02:00,48.1,37.6,29.47,WSW,248,2.5,7.2,67,0.00,,,0.03,WUHU216HW,2013-02-07 20:02:00,
2013-02-07 12:07:00,48.2,38.2,29.47,NNW,338,6.9,6.9,68,0.00,,,0.03,WUHU216HW,2013-02-07 20:07:00,
2013-02-07 12:12:00,48.2,38.2,29.47,SW,225,2.9,6.9,68,0.00,,,0.03,WUHU216HW,2013-02-07 20:12:00,
2013-02-07 12:17:00,48.2,38.2,29.47,SW,225,3.4,6.7,68,0.00,,,0.03,WUHU216HW,2013-02-07 20:17:00,
2013-02-07 12:22:00,48.4,39.1,29.47,West,270,3.1,6.7,70,0.00,,,0.03,WUHU216HW,2013-02-07 20:22:00,
2013-02-07 12:27:00,48.2,38.9,29.47,WSW,248,2.7,7.8,70,0.00,,,0.03,WUHU216HW,2013-02-07 20:27:00,
2013-02-07 12:32:00,48.2,39.3,29.47,West,270,2.2,8.9,71,0.00,,,0.03,WUHU216HW,2013-02-07 20:32:00,
2013-02-07 12:37:00,48.2,38.2,29.47,WSW,248,3.1,8.9,68,0.00,,,0.03,WUHU216HW,2013-02-07 20:37:00,
2013-02-07 12:42:00,48.2,38.2,29.47,SW,225,2.5,6.5,68,0.00,,,0.03,WUHU216HW,2013-02-07 20:42:00,
2013-02-07 12:47:00,48.2,38.5,29.47,West,270,1.8,6.5,69,0.00,,,0.03,WUHU216HW,2013-02-07 20:47:00,
2013-02-07 12:52:00,48.2,37.7,29.47,WSW,248,0.4,6.5,67,0.00,,,0.03,WUHU216HW,2013-02-07 20:52:00,
2013-02-07 12:57:00,47.9,37.8,29.47,North,0,4.0,5.6,68,0.00,,,0.03,WUHU216HW,2013-02-07 20:57:00,
2013-02-07 13:02:00,47.5,37.9,29.47,West,270,1.6,8.3,69,0.00,,,0.03,WUHU216HW,2013-02-07 21:02:00,
2013-02-07 13:07:00,47.9,37.8,29.47,WSW,248,5.6,8.3,68,0.00,,,0.03,WUHU216HW,2013-02-07 21:07:00,
2013-02-07 13:12:00,47.9,38.5,29.47,SSE,158,2.7,6.9,70,0.00,,,0.03,WUHU216HW,2013-02-07 21:12:00,
2013-02-07 13:17:00,47.5,37.9,29.47,NW,315,3.6,8.3,69,0.00,,,0.03,WUHU216HW,2013-02-07 21:17:00,
2013-02-07 13:22:00,47.9,38.2,29.46,WSW,248,2.2,8.3,69,0.00,,,0.03,WUHU216HW,2013-02-07 21:22:00,
2013-02-07 13:27:00,48.2,37.7,29.46,NW,315,6.3,11.2,67,0.00,,,0.03,WUHU216HW,2013-02-07 21:27:00,
2013-02-07 13:32:00,48.1,37.2,29.47,West,270,3.1,11.2,66,0.00,,,0.03,WUHU216HW,2013-02-07 21:32:00,
2013-02-07 13:37:00,47.5,37.4,29.47,WNW,293,6.9,8.1,68,0.00,,,0.03,WUHU216HW,2013-02-07 21:37:00,
2013-02-07 13:42:00,47.7,38.0,29.46,NW,315,2.5,8.1,69,0.00,,,0.03,WUHU216HW,2013-02-07 21:42:00,
2013-02-07 13:47:00,48.4,37.5,29.46,West,270,3.1,8.1,66,0.00,,,0.03,WUHU216HW,2013-02-07 21:47:00,
2013-02-07 13:52:00,48.8,38.6,29.46,WNW,293,1.3,7.4,68,0.00,,,0.03,WUHU216HW,2013-02-07 21:52:00,
2013-02-07 13:57:00,49.0,38.1,29.46,NW,315,6.3,7.4,66,0.00,,,0.03,WUHU216HW,2013-02-07 21:57:00,
2013-02-07 14:02:00,49.0,37.7,29.46,NW,315,9.2,9.2,65,0.00,,,0.03,WUHU216HW,2013-02-07 22:02:00,
2013-02-07 14:07:00,48.8,37.5,29.46,West,270,6.3,9.2,65,0.00,,,0.03,WUHU216HW,2013-02-07 22:07:00,
2013-02-07 14:12:00,48.6,37.0,29.46,WSW,248,2.5,9.2,64,0.00,,,0.03,WUHU216HW,2013-02-07 22:12:00,
2013-02-07 14:17:00,48.8,36.7,29.46,West,270,4.3,6.9,63,0.00,,,0.03,WUHU216HW,2013-02-07 22:17:00,
2013-02-07 14:22:00,49.0,37.3,29.46,NW,315,4.7,6.9,64,0.00,,,0.03,WUHU216HW,2013-02-07 22:22:00,
2013-02-07 14:27:00,49.0,37.3,29.46,WSW,248,5.6,5.6,64,0.00,,,0.03,WUHU216HW,2013-02-07 22:27:00,
2013-02-07 14:32:00,49.0,37.7,29.46,NW,315,2.5,5.6,65,0.00,,,0.03,WUHU216HW,2013-02-07 22:32:00,
2013-02-07 14:37:00,48.8,37.1,29.46,NW,315,5.1,11.0,64,0.00,,,0.03,WUHU216HW,2013-02-07 22:37:00,
2013-02-07 14:42:00,49.0,37.3,29.47,NW,315,2.7,11.0,64,0.00,,,0.03,WUHU216HW,2013-02-07 22:42:00,
2013-02-07 14:47:00,49.3,37.6,29.47,NNW,338,2.0,9.8,64,0.00,,,0.03,WUHU216HW,2013-02-07 22:47:00,
2013-02-07 14:52:00,49.7,37.2,29.47,WSW,248,2.2,9.8,62,0.00,,,0.03,WUHU216HW,2013-02-07 22:52:00,
2013-02-07 14:57:00,50.0,37.9,29.47,WNW,293,3.1,4.5,63,0.00,,,0.03,WUHU216HW,2013-02-07 22:57:00,
2013-02-07 15:02:00,49.7,37.2,29.47,WSW,248,1.6,4.7,62,0.00,,,0.03,WUHU216HW,2013-02-07 23:02:00,
2013-02-07 15:07:00,49.5,37.5,29.47,WSW,248,3.1,4.7,63,0.00,,,0.03,WUHU216HW,2013-02-07 23:07:00,
2013-02-07 15:12:00,49.0,36.9,29.47,WNW,293,6.3,7.4,63,0.00,,,0.03,WUHU216HW,2013-02-07 23:12:00,
2013-02-07 15:17:00,48.4,36.8,29.47,WSW,248,6.3,7.4,64,0.00,,,0.03,WUHU216HW,2013-02-07 23:17:00,
2013-02-07 15:22:00,47.9,36.6,29.47,WSW,248,3.1,8.1,65,0.00,,,0.03,WUHU216HW,2013-02-07 23:22:00,
2013-02-07 15:27:00,47.9,37.0,29.47,NNW,338,3.4,8.1,66,0.00,,,0.03,WUHU216HW,2013-02-07 23:27:00,
2013-02-07 15:32:00,47.9,37.0,29.47,NW,315,4.3,6.3,66,0.00,,,0.03,WUHU216HW,2013-02-07 23:32:00,
2013-02-07 15:37:00,47.7,37.3,29.47,WNW,293,2.0,7.4,67,0.00,,,0.03,WUHU216HW,2013-02-07 23:37:00,
2013-02-07 15:42:00,47.5,37.1,29.47,SW,225,0.4,7.4,67,0.00,,,0.03,WUHU216HW,2013-02-07 23:42:00,
2013-02-07 15:47:00,47.7,36.9,29.47,WNW,293,6.3,6.3,66,0.00,,,0.03,WUHU216HW,2013-02-07 23:47:00,
2013-02-07 15:52:00,47.7,37.3,29.48,WNW,293,1.1,6.9,67,0.00,,,0.03,WUHU216HW,2013-02-07 23:52:00,
2013-02-07 15:57:00,47.5,37.1,29.48,NW,315,2.9,6.9,67,0.00,,,0.03,WUHU216HW,2013-02-07 23:57:00,
2013-02-07 16:02:00,47.7,37.6,29.48,NNW,338,2.5,6.3,68,0.00,,,0.03,WUHU216HW,2013-02-08 00:02:00,
2013-02-07 16:07:00,47.5,37.1,29.48,WNW,293,1.8,4.9,67,0.00,,,0.03,WUHU216HW,2013-02-08 00:07:00,
2013-02-07 16:12:00,47.3,36.6,29.48,West,270,3.1,4.5,66,0.00,,,0.03,WUHU216HW,2013-02-08 00:12:00,
2013-02-07 16:17:00,47.2,36.7,29.48,West,270,1.3,4.5,67,0.00,,,0.03,WUHU216HW,2013-02-08 00:17:00,
2013-02-07 16:22:00,47.2,36.7,29.48,West,270,4.5,4.9,67,0.00,,,0.03,WUHU216HW,2013-02-08 00:22:00,
2013-02-07 16:27:00,46.8,36.8,29.48,NW,315,2.9,4.9,68,0.00,,,0.03,WUHU216HW,2013-02-08 00:27:00,
2013-02-07 16:32:00,46.8,36.8,29.48,SW,225,1.8,4.5,68,0.00,,,0.03,WUHU216HW,2013-02-08 00:32:00,
2013-02-07 16:37:00,46.4,36.5,29.48,WNW,293,5.4,5.4,68,0.00,,,0.03,WUHU216HW,2013-02-08 00:37:00,
2013-02-07 16:42:00,46.4,36.5,29.48,WNW,293,1.1,5.4,68,0.00,,,0.03,WUHU216HW,2013-02-08 00:42:00,
2013-02-07 16:47:00,46.1,36.1,29.48,NW,315,5.1,5.4,68,0.00,,,0.03,WUHU216HW,2013-02-08 00:47:00,
2013-02-07 16:52:00,45.7,35.7,29.48,NNW,338,2.0,5.1,68,0.00,,,0.03,WUHU216HW,2013-02-08 00:52:00,
2013-02-07 16:57:00,45.7,36.2,29.48,WNW,293,0.9,5.1,69,0.00,,,0.03,WUHU216HW,2013-02-08 00:57:00,
2013-02-07 17:02:00,45.4,35.8,29.48,WNW,293,2.9,2.9,69,0.00,,,0.03,WUHU216HW,2013-02-08 01:02:00,
2013-02-07 17:07:00,45.2,36.4,29.49,NW,315,0.9,3.4,71,0.00,,,0.03,WUHU216HW,2013-02-08 01:07:00,
2013-02-07 17:12:00,45.0,36.2,29.49,NNW,338,1.1,3.4,71,0.00,,,0.03,WUHU216HW,2013-02-08 01:12:00,
2013-02-07 17:17:00,44.6,36.2,29.49,NW,315,1.1,2.5,72,0.00,,,0.03,WUHU216HW,2013-02-08 01:17:00,
2013-02-07 17:22:00,44.6,36.2,29.49,SSW,203,0.2,2.5,72,0.00,,,0.03,WUHU216HW,2013-02-08 01:22:00,
2013-02-07 17:27:00,44.5,36.0,29.49,SW,225,0.4,1.1,72,0.00,,,0.03,WUHU216HW,2013-02-08 01:27:00,
2013-02-07 17:32:00,44.1,35.6,29.49,NNW,338,0.0,1.1,72,0.00,,,0.03,WUHU216HW,2013-02-08 01:32:00,
2013-02-07 17:37:00,43.6,35.5,29.49,WNW,293,1.1,1.6,73,0.00,,,0.03,WUHU216HW,2013-02-08 01:37:00,
2013-02-07 17:42:00,42.8,35.1,29.49,NW,315,1.6,1.8,74,0.00,,,0.03,WUHU216HW,2013-02-08 01:42:00,
2013-02-07 17:47:00,42.5,35.1,29.49,NNW,338,1.8,2.9,75,0.00,,,0.03,WUHU216HW,2013-02-08 01:47:00,
2013-02-07 17:52:00,41.9,34.9,29.49,NNW,338,1.6,3.4,76,0.00,,,0.03,WUHU216HW,2013-02-08 01:52:00,
2013-02-07 17:57:00,41.6,34.2,29.50,NNW,338,3.4,3.6,75,0.00,,,0.03,WUHU216HW,2013-02-08 01:57:00,
2013-02-07 18:02:00,41.6,34.2,29.50,NNW,338,0.7,3.6,75,0.00,,,0.03,WUHU216HW,2013-02-08 02:02:00,
2013-02-07 18:07:00,41.4,34.0,29.50,NNW,338,1.8,3.4,75,0.00,,,0.03,WUHU216HW,2013-02-08 02:07:00,
2013-02-07 18:12:00,41.0,34.0,29.50,NNW,338,1.8,3.1,76,0.00,,,0.03,WUHU216HW,2013-02-08 02:12:00,
2013-02-07 18:17:00,40.9,33.9,29.50,NW,315,1.8,2.9,76,0.00,,,0.03,WUHU216HW,2013-02-08 02:17:00,
2013-02-07 18:22:00,40.7,33.9,29.50,North,0,0.4,2.9,77,0.00,,,0.03,WUHU216HW,2013-02-08 02:22:00,
2013-02-07 18:27:00,40.3,33.3,29.50,NNE,23,0.9,1.8,76,0.00,,,0.03,WUHU216HW,2013-02-08 02:27:00,
2013-02-07 18:32:00,40.3,33.7,29.51,North,0,0.2,1.8,77,0.00,,,0.03,WUHU216HW,2013-02-08 02:32:00,
2013-02-07 18:37:00,40.1,33.5,29.51,NNE,23,1.8,1.8,77,0.00,,,0.03,WUHU216HW,2013-02-08 02:37:00,
2013-02-07 18:42:00,40.0,33.3,29.51,NW,315,1.6,2.5,77,0.00,,,0.03,WUHU216HW,2013-02-08 02:42:00,
2013-02-07 18:47:00,39.8,33.9,29.51,NW,315,1.6,2.5,79,0.00,,,0.03,WUHU216HW,2013-02-08 02:47:00,
2013-02-07 18:52:00,39.4,33.1,29.51,NNW,338,1.1,3.6,78,0.00,,,0.03,WUHU216HW,2013-02-08 02:52:00,
2013-02-07 18:57:00,39.1,33.1,29.51,NNW,338,0.9,3.6,79,0.00,,,0.03,WUHU216HW,2013-02-08 02:57:00,
2013-02-07 19:02:00,38.9,32.9,29.52,NNW,338,1.1,2.0,79,0.00,,,0.03,WUHU216HW,2013-02-08 03:02:00,
2013-02-07 19:07:00,38.3,32.4,29.52,NNW,338,0.4,1.6,79,0.00,,,0.03,WUHU216HW,2013-02-08 03:07:00,
2013-02-07 19:12:00,37.8,32.2,29.52,NNW,338,0.0,1.6,80,0.00,,,0.03,WUHU216HW,2013-02-08 03:12:00,
2013-02-07 19:17:00,37.6,32.0,29.52,NW,315,2.5,2.5,80,0.00,,,0.03,WUHU216HW,2013-02-08 03:17:00,
2013-02-07 19:22:00,37.4,31.9,29.52,NNW,338,2.9,3.1,80,0.00,,,0.03,WUHU216HW,2013-02-08 03:22:00,
2013-02-07 19:27:00,37.3,31.7,29.52,NNW,338,2.5,3.1,80,0.00,,,0.03,WUHU216HW,2013-02-08 03:27:00,
2013-02-07 19:32:00,37.1,31.8,29.52,North,0,0.4,2.9,81,0.00,,,0.03,WUHU216HW,2013-02-08 03:32:00,
2013-02-07 19:37:00,36.7,31.7,29.52,NNW,338,1.1,2.9,82,0.00,,,0.03,WUHU216HW,2013-02-08 03:37:00,
2013-02-07 19:43:00,36.7,31.7,29.53,NW,315,1.3,2.9,82,0.00,,,0.03,WUHU216HW,2013-02-08 03:43:00,
2013-02-07 19:48:00,36.7,32.1,29.53,NW,315,2.2,2.5,83,0.00,,,0.03,WUHU216HW,2013-02-08 03:48:00,
2013-02-07 19:53:00,36.5,31.9,29.53,North,0,0.4,2.7,83,0.00,,,0.03,WUHU216HW,2013-02-08 03:53:00,
2013-02-07 19:58:00,36.4,31.7,29.53,NNW,338,1.1,2.7,83,0.00,,,0.03,WUHU216HW,2013-02-08 03:58:00,
2013-02-07 20:03:00,36.4,31.7,29.53,North,0,0.9,2.5,83,0.00,,,0.03,WUHU216HW,2013-02-08 04:03:00,
2013-02-07 20:08:00,36.2,31.5,29.53,NNW,338,0.7,2.9,83,0.00,,,0.03,WUHU216HW,2013-02-08 04:08:00,
2013-02-07 20:13:00,36.0,31.6,29.53,NNW,338,2.5,3.8,84,0.00,,,0.03,WUHU216HW,2013-02-08 04:13:00,
2013-02-07 20:18:00,35.8,31.4,29.53,North,0,0.9,3.8,84,0.00,,,0.03,WUHU216HW,2013-02-08 04:18:00,
2013-02-07 20:23:00,35.6,31.2,29.54,NNW,338,1.6,4.9,84,0.00,,,0.03,WUHU216HW,2013-02-08 04:23:00,
2013-02-07 20:28:00,35.6,31.2,29.54,North,0,1.1,4.9,84,0.00,,,0.03,WUHU216HW,2013-02-08 04:28:00,
2013-02-07 20:33:00,35.5,31.1,29.54,NNW,338,2.5,3.6,84,0.00,,,0.03,WUHU216HW,2013-02-08 04:33:00,
2013-02-07 20:38:00,35.3,30.9,29.54,North,0,0.4,3.6,84,0.00,,,0.03,WUHU216HW,2013-02-08 04:38:00,
2013-02-07 20:43:00,35.3,31.1,29.54,NW,315,2.7,3.6,85,0.00,,,0.03,WUHU216HW,2013-02-08 04:43:00,
2013-02-07 20:48:00,35.1,30.7,29.55,North,0,0.7,3.6,84,0.00,,,0.03,WUHU216HW,2013-02-08 04:48:00,
2013-02-07 20:53:00,35.1,30.7,29.55,North,0,0.7,2.7,84,0.00,,,0.03,WUHU216HW,2013-02-08 04:53:00,
2013-02-07 20:58:00,35.1,30.7,29.55,NNW,338,2.5,2.5,84,0.00,,,0.03,WUHU216HW,2013-02-08 04:58:00,
2013-02-07 21:00:00,34.9,30.5,29.55,NNW,338,1.1,2.5,84,0.00,,,0.03,WUHU216HW,2013-02-08 05:00:00,
2013-02-07 21:05:00,34.9,30.8,29.55,NW,315,2.0,2.5,85,0.00,,,0.03,WUHU216HW,2013-02-08 05:05:00,
2013-02-07 21:10:00,34.7,30.6,29.55,NNW,338,1.1,3.6,85,0.00,,,0.03,WUHU216HW,2013-02-08 05:10:00,
2013-02-07 21:15:00,34.7,30.6,29.56,North,0,0.4,3.6,85,0.00,,,0.03,WUHU216HW,2013-02-08 05:15:00,
2013-02-07 21:20:00,34.6,30.4,29.56,NW,315,1.8,2.9,85,0.00,,,0.03,WUHU216HW,2013-02-08 05:20:00,
2013-02-07 21:25:00,34.2,30.1,29.56,NNW,338,1.8,2.9,85,0.00,,,0.03,WUHU216HW,2013-02-08 05:25:00,
2013-02-07 21:30:00,34.2,30.3,29.56,NNW,338,2.5,3.4,86,0.00,,,0.03,WUHU216HW,2013-02-08 05:30:00,
2013-02-07 21:35:00,34.2,30.3,29.56,NNW,338,3.1,3.4,86,0.00,,,0.03,WUHU216HW,2013-02-08 05:35:00,
2013-02-07 21:40:00,34.2,30.3,29.56,NNW,338,2.2,3.6,86,0.00,,,0.03,WUHU216HW,2013-02-08 05:40:00,
2013-02-07 21:45:00,34.2,30.3,29.57,NW,315,3.4,4.5,86,0.00,,,0.03,WUHU216HW,2013-02-08 05:45:00,
2013-02-07 21:50:00,34.4,30.5,29.57,NNW,338,1.8,4.5,86,0.00,,,0.03,WUHU216HW,2013-02-08 05:50:00,
2013-02-07 21:55:00,34.6,30.7,29.57,NW,315,1.8,3.6,86,0.00,,,0.03,WUHU216HW,2013-02-08 05:55:00,
2013-02-07 22:00:00,34.6,30.7,29.58,NNW,338,2.0,3.8,86,0.00,,,0.03,WUHU216HW,2013-02-08 06:00:00,
2013-02-07 22:05:00,34.6,30.7,29.57,NW,315,2.0,3.8,86,0.00,,,0.03,WUHU216HW,2013-02-08 06:05:00,
2013-02-07 22:10:00,34.4,30.5,29.57,WNW,293,3.1,3.6,86,0.00,,,0.03,WUHU216HW,2013-02-08 06:10:00,
2013-02-07 22:15:00,34.4,30.2,29.57,NNW,338,1.1,4.3,85,0.00,,,0.03,WUHU216HW,2013-02-08 06:15:00,
2013-02-07 22:20:00,34.2,30.3,29.57,NNW,338,2.2,4.3,86,0.00,,,0.03,WUHU216HW,2013-02-08 06:20:00,
2013-02-07 22:25:00,34.2,30.3,29.57,NW,315,3.1,3.6,86,0.00,,,0.03,WUHU216HW,2013-02-08 06:25:00,
2013-02-07 22:30:00,34.2,30.3,29.58,NW,315,2.2,3.8,86,0.00,,,0.03,WUHU216HW,2013-02-08 06:30:00,
2013-02-07 22:35:00,33.8,30.0,29.58,NNW,338,1.6,3.8,86,0.00,,,0.03,WUHU216HW,2013-02-08 06:35:00,
2013-02-07 22:40:00,33.5,29.7,29.58,NW,315,2.5,3.4,86,0.00,,,0.03,WUHU216HW,2013-02-08 06:40:00,
2013-02-07 22:45:00,33.5,30.0,29.58,NNW,338,1.6,3.4,87,0.00,,,0.03,WUHU216HW,2013-02-08 06:45:00,
2013-02-07 22:50:00,33.5,30.0,29.58,NNW,338,0.7,2.5,87,0.00,,,0.03,WUHU216HW,2013-02-08 06:50:00,
2013-02-07 22:55:00,33.5,29.7,29.58,North,0,0.7,1.8,86,0.00,,,0.03,WUHU216HW,2013-02-08 06:55:00,
2013-02-07 23:00:00,33.3,29.5,29.58,NNW,338,2.0,2.7,86,0.00,,,0.03,WUHU216HW,2013-02-08 07:00:00,
2013-02-07 23:05:00,32.9,29.2,29.58,NW,315,2.5,3.4,86,0.00,,,0.03,WUHU216HW,2013-02-08 07:05:00,
2013-02-07 23:10:00,32.8,29.4,29.59,NNW,338,1.6,3.4,87,0.00,,,0.03,WUHU216HW,2013-02-08 07:10:00,
2013-02-07 23:15:00,32.8,29.4,29.59,NNW,338,2.7,3.8,87,0.00,,,0.03,WUHU216HW,2013-02-08 07:15:00,
2013-02-07 23:20:00,32.8,29.4,29.59,NNW,338,1.3,3.8,87,0.00,,,0.03,WUHU216HW,2013-02-08 07:20:00,
2013-02-07 23:25:00,32.9,29.4,29.59,NNW,338,1.1,2.9,87,0.00,,,0.03,WUHU216HW,2013-02-08 07:25:00,
2013-02-07 23:30:00,32.8,29.4,29.59,NNW,338,1.6,2.5,87,0.00,,,0.03,WUHU216HW,2013-02-08 07:30:00,
2013-02-07 23:35:00,32.8,29.4,29.59,NW,315,2.0,2.0,87,0.00,,,0.03,WUHU216HW,2013-02-08 07:35:00,
2013-02-07 23:40:00,32.6,29.2,29.59,NNW,338,1.8,2.7,87,0.00,,,0.03,WUHU216HW,2013-02-08 07:40:00,
2013-02-07 23:45:00,32.4,29.3,29.59,North,0,1.1,2.7,88,0.00,,,0.03,WUHU216HW,2013-02-08 07:45:00,
2013-02-07 23:50:00,32.8,29.4,29.59,NNW,338,1.1,2.2,87,0.00,,,0.03,WUHU216HW,2013-02-08 07:50:00,
2013-02-07 23:55:00,32.8,29.4,29.59,NNW,338,1.3,2.2,87,0.00,,,0.03,WUHU216HW,2013-02-08 07:55:00,